Regional Weather Roundup
Issued by NWS

Home | Current Version | Previous Version | Graphics & Text | Print | Product List | Glossary On
Versions: 1 2 3 4 5 6 7 8 9 10 11 12 13 14 15 16 17 18 19 20 21 22 23 24 25 26 27 28 29 30 31 32 33 34 35 36 37 38 39 40 41 42 43 44 45 46 47 48 49
000
ASUS45 KTFX 230010
RWRMT
MONTANA REGIONAL WEATHER ROUNDUP
NATIONAL WEATHER SERVICE GREAT FALLS MT
600 PM MDT TUE AUG 22 2017

NOTE: "FAIR" INDICATES FEW OR NO CLOUDS BELOW 12000 FEET WITH NO
SIGNIFICANT WEATHER AND/OR OBSTRUCTIONS TO VISIBILITY.

MTZ001>007-043-230100-
WEST OF THE DIVIDE

CITY           SKY/WX    TMP DP  RH WIND       PRES   REMARKS
KALISPELL      SUNNY     88  40  18 S9        30.01F
MISSOULA       SUNNY     88  36  15 S5        30.01F HAZE
BUTTE          SUNNY     86  27  11 E5        30.16F
MULLAN PASS    SUNNY     76  35  22 MISG      30.24S
ANACONDA         N/A     82  45  26 N6        30.12S
DEER LODGE       N/A     84  36  17 N8        30.13S
EUREKA           N/A     91  39  16 MISG      29.96F
HAMILTON         N/A     84  45  24 CALM      30.06S
LIBBY            N/A     91  37  15 NW6       29.95F
PLAINS           N/A     95  43  16 MISG      29.98F HX  91
RONAN            N/A     87  49  26 NW2       30.08F
$$

MTZ008-052>055-230100-
SOUTHWEST MONTANA

CITY           SKY/WX    TMP DP  RH WIND       PRES   REMARKS
BOZEMAN        SUNNY     85  39  19 NW10      30.09F
DILLON         SUNNY     87  39  18 N7        30.11F
W YELLOWSTONE  SUNNY     81  27  13 SW10      30.27F
ENNIS          SUNNY     88  28  11 N7        30.18F
THREE FORKS      N/A     89  35  14 NE6       30.06F
$$

MTZ009-010-012-014-046-048-049-054-230100-
EAST SLOPES AND CENTRAL MONTANA

CITY           SKY/WX    TMP DP  RH WIND       PRES   REMARKS
CUT BANK       SUNNY     84  36  18 CALM      30.06F
GREAT FALLS    SUNNY     88  31  13 NW7       30.05F
MALMSTROM AFB  SUNNY     87  31  13 NE6       30.04F
HELENA         SUNNY     90  35  14 NE9       30.04F
AUGUSTA          N/A     84  32  15 SE8       30.09F
CHOTEAU          N/A     86  34  15 NE6       30.08S
FAIRFIELD        N/A     85  31  14 SE5       30.06F
POWER            N/A     85  30  14 CALM      30.05F
RAYNESFORD       N/A     85  31  14 NE6       30.08F
ULM              N/A     87  30  12 N8        30.04F
$$

MTZ011-013-016-021-045-047-050-051-230100-
NORTH CENTRAL MONTANA

CITY           SKY/WX    TMP DP  RH WIND       PRES   REMARKS
HAVRE          SUNNY     87  37  17 VRB5      30.02F
LEWISTOWN      SUNNY     85  34  16 E5        30.09F
N BAR RANCH      N/A     82  30  15 S5        30.14F
CHINOOK          N/A     86  39  19 NE6       30.01F
DENTON           N/A     85  36  17 NE10      30.03F
GEYSER           N/A     85  32  15 SE6       30.07F
GRASS RANGE      N/A     84  31  14 E16       30.05F
JUDITH GAP       N/A     83  34  17 SE8       30.11F
$$

MTZ017>020-022>027-061-062-230100-
NORTHEAST MONTANA

CITY           SKY/WX    TMP DP  RH WIND       PRES   REMARKS
GLASGOW        SUNNY     84  34  16 S6        30.05F
SIDNEY         SUNNY     80  39  23 NE3       30.09F
WOLF POINT     SUNNY     85  36  17 E9        30.06F
MALTA          SUNNY     86  37  17 CALM      30.02F
PLENTYWOOD       N/A     81  39  22 CALM      30.09F
SCOBEY           N/A     81  40  23 S8        30.07F
$$

MTZ028>42-056>058-230100-
SOUTHCENTRAL AND SOUTHEAST MONTANA

CITY           SKY/WX    TMP DP  RH WIND       PRES   REMARKS
BAKER          SUNNY     84  37  18 E12       30.10F
BILLINGS       MOSUNNY   86  33  15 E9        30.07F
LIVINGSTON     SUNNY     89  32  13 NW9       30.08F
MILES CITY     SUNNY     87  34  15 VRB5      30.05F
BIG TIMBER     SUNNY     86  34  15 E12       30.11S
EKALAKA          N/A     83  35  17 NW7       30.09F
HARLOWTON        N/A     85  31  14 MISG      30.09F
LAUREL           N/A     86  42  21 NE7       30.06F
$$

REGIONAL REPORTS...DAKOTAS

CITY           SKY/WX    TMP DP  RH WIND       PRES   REMARKS
WILLISTON      SUNNY     80  40  23 SW5       30.11F
MINOT          SUNNY     75  40  28 NW7       30.10F
DICKINSON      SUNNY     77  42  28 NE8       30.12F
BEACH            N/A     79  36  21 E8        30.15S
CROSBY           N/A     79  37  22 SE6       30.09F
TIOGA            N/A     75  37  25 CALM      30.13F
WATFORD CITY     N/A     77  37  24 NE7       30.11F
BISMARCK       SUNNY     76  43  30 N9        30.12F
GRAND FORKS    MOSUNNY   73  47  39 N10       30.05S
FARGO          SUNNY     74  43  32 NW14      30.06S
BUFFALO SD       N/A     82  41  23 E15       30.05F
RAPID CITY     SUNNY     83  47  28 SE14      30.10F
$$

REGIONAL REPORTS...WYOMING/IDAHO/WASHINGTON

CITY           SKY/WX    TMP DP  RH WIND       PRES   REMARKS
GILLETTE       SUNNY     85  31  14 N12       30.14S
SHERIDAN       SUNNY     88  34  14 CALM      30.12F
BUFFALO WY     SUNNY     84  32  15 N6        30.19F
CODY           SUNNY     84  34  16 E8        30.16F
YELLOWSTONE LA   N/A     73  24  16 VRB5      30.38S
IDAHO FALLS    SUNNY     88  34  14 S10       30.13F
SALMON         SUNNY     87  48  25 NW5       30.05F
BOISE          SUNNY     92  43  18 NW6       30.00F
SPOKANE        PTSUNNY   89  37  16 SW8       29.98F
$$

REGIONAL REPORTS...ALBERTA

CITY           SKY/WX    TMP DP  RH WIND       PRES   REMARKS
EDMONTON       MOSUNNY   77  52  41 CALM      30.00F
CALGARY        MOSUNNY   81  45  28 E12       30.04F
LETHBRIDGE     MOSUNNY   84  43  23 E8        30.01F
MEDICINE HAT   SUNNY     88  41  19 W8        29.98F
$$

REGIONAL REPORTS...SASKATCHEWAN

CITY           SKY/WX    TMP DP  RH WIND       PRES   REMARKS
SWIFT CURRENT  SUNNY     82  41  23 W10       30.03F
REGINA         PTSUNNY   79  39  24 W6        30.03F
SASKATOON      MOSUNNY   77  52  41 NW13      30.02F
$$



USA.gov is the U.S. government's official web portal to all federal, state and local government web resources and services.